Regional Weather Roundup
Issued by NWS Sioux Falls, SD

Home | Current Version | Previous Version | Graphics & Text | Print | Product List | Glossary On
Versions: 1 2 3 4 5 6 7 8 9 10 11 12 13 14 15 16 17 18 19 20 21 22 23 24 25 26 27 28 29 30 31 32 33 34 35 36 37 38 39 40 41 42 43 44 45 46 47 48 49 50
000
ASUS43 KFSD 272202
RWRFSD

WEATHER ROUNDUP FOR SE SOUTH DAKOTA/SW MINNESOTA/NW IOWA
NATIONAL WEATHER SERVICE SIOUX FALLS SD
400 PM CST THU NOV 27 2014

NOTE: "FAIR" INDICATES FEW OR NO CLOUDS BELOW 12,000 FEET WITH NO
SIGNIFICANT WEATHER AND OR OBSTRUCTIONS TO VISIBILITY.


SDZ038>040-050-052>070-272300-
SOUTHEAST SOUTH DAKOTA

CITY           SKY/WX    TMP DP  RH WIND       PRES   REMARKS
CHAMBERLAIN    NOT AVBL
HURON          CLOUDY    14   4  64 SE15G22   30.20F WCI  -1
MADISON        MOCLDY     9   0  66 SE16      30.23F WCI  -9
MITCHELL       CLOUDY    15   7  70 SE16      30.23F WCI  -1
SIOUX FALLS    CLOUDY    11   1  64 SE13      30.27F WCI  -4
WINNER         CLOUDY    36  19  50 SE14      30.03F
YANKTON        PTCLDY    18   9  68 SE12      30.26F WCI   5
$$

MNZ071-072-080-081-089-090-097-098-272300-
SOUTHWEST MINNESOTA

CITY           SKY/WX    TMP DP  RH WIND       PRES   REMARKS
FAIRMONT       CLEAR      0  -8  71 E5        30.38F WCI -10
JACKSON        PTCLDY     3  -4  72 SE7       30.35F WCI  -9
LUVERNE        CLOUDY    12   1  62 SE9       30.31S WCI   0
MARSHALL       CLOUDY     7  -2  66 SE9       30.32F WCI  -7
MONTEVIDEO     PTCLDY     5  -2  72 S10       30.36F WCI -10
PIPESTONE      CLOUDY    10   0  61 SE12      30.26F WCI  -4
REDWOOD FALLS  CLEAR      0  -6  76 SE8       30.38F WCI -14
TRACY          CLOUDY     9   0  67 SE10      30.32F WCI  -5
WINDOM         PTCLDY     3  -2  78 SE7       30.34F WCI  -9
WORTHINGTON    CLOUDY     7  -2  66 SE10      30.31F WCI  -8
$$

IAZ001>003-012>014-020>022-031-032-NEZ013-014-SDZ071-272300-
NORTHWEST IOWA

CITY           SKY/WX    TMP DP  RH WIND       PRES   REMARKS
DENISON        PTCLDY    14   3  62 SE8       30.34F WCI   3
ESTHERVILLE    PTCLDY     0  -5  79 SE7       30.37F WCI -13
SIOUX CITY     PTCLDY    19   6  57 SE17      30.32F WCI   4
SPENCER        CLOUDY     8  -2  63 SE9       30.35F WCI  -5
$$

ABBREVIATIONS USED IN REMARKS
   TC - TEMPERATURE IN CELSIUS
  WCI - WIND CHILL INDEX
   HX - HEAT INDEX
  VSB - VISIBILITY




USA.gov is the U.S. government's official web portal to all federal, state and local government web resources and services.